Probability
0 0 0 0 0 0 0 0 0 0 0 0 0 0 0 0 0 0 0 0 0 0 0 0 0 0 0 0 0 0 0 1 1 1 0 0 0 0 0 0 0 0 0 0
0 0 0 0 0 0 0 0 0 0 0 0 0 0 0 0 0 0 0 0 0 0 0 0 0 0 0 0 0 0 0 0 0 0 0 0 0 0 0 0 0 0 0 0
0 0 0 0 0 0 0 0 0 0 0 0 0 0 0 0 0 0 0 0 0 0 0 0 0 0 0 0 0 0 0 0 0 0 0 0 0 0 0 0 0 0 0 0
0 0 0 0 0 0 0 0 0 0 0 0 0 0 0 0 0 0 0 0 0 0 0 0 0 0 0 0 0 0 0 0 0 0 0 0 0 0 0 0 0 0 0 0
0 0 0 0 0 0 0 0 0 0 0 0 0 0 0 0 0 0 0 0 0 0 0 0 0 0 0 0 0 0 0 0 0 0 0 0 0 0 0 0 0 0 0 0
0 0 0 0 0 0 0 0 0 0 0 0 0 0 0 0 0 0 0 0 0 0 0 0 0 0 0 0 0 0 0 0 0 0 0 0 0 0 0 0 0 0 0 0
0 0 0 0 0 0 0 0 0 0 0 0 0 0 0 0 0 0 0 1 0 0 0 0 0 0 0 0 0 0 0 0 0 0 0 0 0 0 0 0 0 0 0 0
0 0 0 0 0 0 0 0 0 0 0 0 0 0 0 0 0 0 0 0 0 0 0 0 0 0 0 0 0 0 0 0 0 0 0 0 0 0 0 0 0 0 0 0
0 0 0 0 0 0 0 0 0 0 0 0 0 0 0 0 0 0 1 1 1 0 0 0 0 0 0 0 0 0 0 0 0 0 0 0 0 0 0 0 0 0 0 0
0 0 0 0 0 0 0 0 0 0 0 0 0 0 0 0 0 1 2 3 2 1 1 0 0 0 0 0 0 0 0 0 0 0 0 0 0 0 0 0 0 0 0 0
0 0 0 0 0 0 0 0 0 0 0 0 0 0 0 0 0 1 4 5 4 2 1 0 0 0 0 0 0 0 0 0 0 0 0 0 0 0 0 0 0 0 0 0
0 0 0 0 0 0 0 0 0 0 0 0 0 1 1 1 1 1 3 5 3 2 1 0 0 0 0 0 0 0 0 0 0 0 0 0 0 0 0 0 0 0 0 0
0 0 0 0 0 0 0 0 0 0 0 0 0 0 1 1 1 1 1 3 2 1 0 0 0 0 0 0 0 0 0 0 0 0 0 0 0 0 0 0 0 0 0 0
0 0 0 0 0 0 0 0 0 0 0 0 0 0 0 1 1 0 0 1 1 0 0 0 0 0 0 0 0 0 0 0 0 0 0 0 0 0 0 0 0 0 0 0
0 0 0 0 0 0 0 0 0 0 0 0 0 0 0 0 0 0 0 0 0 0 0 0 0 0 0 0 0 0 0 0 0 0 0 0 0 0 0 0 0 0 0 0
0 0 0 0 0 0 0 0 0 0 0 0 0 0 0 0 0 0 0 0 0 0 0 0 0 0 0 0 0 0 0 0 0 0 0 0 0 0 0 0 0 0 0 0
0 0 0 0 0 0 0 0 0 0 0 0 0 0 0 0 0 0 0 0 0 0 0 0 0 0 0 0 0 0 0 0 0 0 0 0 0 0 0 0 0 0 0 0
0 0 0 0 0 0 0 0 0 0 0 0 0 0 0 0 0 0 0 0 0 0 0 0 0 0 0 0 0 0 0 0 0 0 0 0 0 0 0 0 0 0 0 0
0 0 0 0 0 0 0 0 0 0 0 0 0 0 0 0 0 0 0 0 0 0 0 0 0 0 0 0 0 0 0 0 0 0 0 0 0 0 0 0 0 0 0 0
0 0 0 0 0 0 0 0 0 0 0 0 0 0 0 0 0 0 0 0 0 0 0 0 0 0 0 0 0 0 0 0 0 0 0 0 0 0 0 0 0 0 0 0
0 0 0 0 0 0 0 0 0 0 0 0 0 0 0 0 0 0 0 0 0 0 0 0 0 0 0 0 0 0 0 0 0 0 0 0 0 0 0 0 0 0 0 0
0 0 0 0 0 0 0 0 0 0 0 0 0 0 0 0 0 0 0 0 0 0 0 0 0 0 0 0 0 0 0 0 0 0 0 0 0 0 0 0 0 0 0 0
0 0 0 0 0 0 0 0 0 0 0 0 0 0 0 0 0 0 0 0 0 0 0 0 0 0 0 0 0 0 0 0 0 0 0 0 0 0 0 0 0 0 0 0
0 0 0 0 0 0 0 0 0 0 0 0 0 0 0 0 0 0 0 0 0 0 0 0 0 0 0 0 0 0 0 0 0 0 0 0 0 0 0 0 0 0 0 0
0 0 0 0 0 0 0 0 0 0 0 0 0 0 0 0 0 0 0 0 0 0 0 0 0 0 0 0 0 0 0 0 0 0 0 0 0 0 0 0 0 0 0 0
0 0 0 0 0 0 0 0 0 0 0 0 0 0 0 0 0 0 0 0 0 0 0 0 0 0 0 0 0 0 0 0 0 0 0 0 0 0 0 0 0 0 0 0
0 0 0 0 0 0 0 0 0 0 0 0 0 0 0 0 0 0 0 0 0 0 0 0 0 0 0 0 0 0 0 0 0 0 0 0 0 0 0 0 0 0 0 0
Wind_Speed
16 16 16 17 18 18 18 19 21 21 21 19 17 15 12 9 8 8 7 7 6 5 5 4 3 3 2 2 2 2 2 4 5 5 5 5 5 5 4 4 5 5 6 6
16 16 17 19 20 21 22 21 21 22 21 17 13 9 8 8 8 9 8 7 6 5 5 5 4 4 4 3 3 4 4 5 6 7 7 7 7 6 5 5 5 6 6 7
15 14 14 14 12 13 14 15 17 18 16 14 13 12 10 8 8 9 8 7 6 6 6 6 5 5 5 4 4 4 5 6 8 8 9 9 9 8 7 6 6 7 7 9
10 9 10 6 5 8 12 14 14 15 16 16 15 11 9 9 8 9 8 8 7 6 6 6 6 6 5 5 5 5 5 6 7 8 9 9 9 9 8 7 6 7 8 9
7 10 11 9 8 9 11 15 15 14 13 14 10 8 11 10 8 8 8 7 6 6 7 6 7 6 6 6 6 6 6 6 7 8 8 9 9 9 8 7 7 7 8 9
8 10 9 7 9 7 9 13 8 10 12 13 10 12 10 2 5 7 7 7 6 6 7 7 7 7 7 7 7 7 6 7 7 8 8 9 9 9 8 7 7 7 8 8
11 12 9 7 9 9 10 11 17 17 17 17 15 14 13 6 6 7 8 8 8 8 8 8 8 7 8 7 7 6 6 7 7 7 7 8 8 8 8 8 8 7 8 7
7 8 4 12 14 13 17 21 22 21 21 20 19 18 16 12 10 9 9 10 11 9 9 8 8 8 9 8 6 6 6 7 8 8 7 8 8 8 8 8 9 8 8 8
8 9 14 18 18 19 20 22 22 22 22 21 21 19 18 16 12 12 12 11 11 11 11 10 10 10 10 8 7 7 8 9 8 9 7 8 9 9 9 9 8 8 8 8
10 9 15 16 18 20 22 22 23 22 22 22 21 20 18 16 13 11 12 13 13 13 12 11 11 11 10 8 8 9 9 9 9 9 9 8 7 8 9 9 8 8 7 7
10 11 14 14 21 23 23 23 23 23 21 20 20 19 17 15 14 11 11 12 14 14 13 13 12 12 11 9 10 10 10 9 9 9 8 8 8 5 6 6 5 6 7 7
6 12 11 13 17 20 21 21 22 22 21 20 18 18 17 15 13 11 11 12 14 15 15 14 13 13 12 11 11 11 10 10 9 8 8 8 8 7 7 5 6 4 4 1
8 13 10 13 16 18 18 19 20 19 19 19 18 18 17 16 14 11 10 13 15 17 16 15 14 14 13 13 12 12 10 10 8 8 8 8 8 9 9 6 4 3 2 1
11 11 12 15 17 18 18 19 18 17 16 16 16 16 17 16 15 13 11 11 14 15 16 16 16 15 14 14 14 13 12 10 9 8 8 9 9 9 9 11 10 9 7 6
11 11 13 15 16 17 17 18 19 18 18 17 15 15 16 17 17 15 12 10 11 14 15 16 17 16 15 15 15 14 12 10 10 9 9 9 9 9 9 10 10 11 11 10
16 16 16 17 18 19 19 19 19 19 18 17 16 16 15 15 16 16 13 9 10 13 14 16 16 16 16 16 16 13 12 11 10 9 10 10 9 9 9 9 10 10 11 12
18 19 20 21 21 21 20 19 19 19 19 18 17 16 15 14 15 15 14 12 10 11 11 13 14 15 16 17 16 13 12 12 12 11 10 10 10 10 10 10 10 10 10 11
19 21 22 23 22 23 22 21 20 20 20 19 18 16 16 15 14 14 14 14 12 10 11 12 12 14 16 17 15 12 12 12 13 13 11 11 11 10 11 11 11 12 10 11
21 22 23 23 23 22 22 21 21 20 20 19 19 18 16 15 13 12 12 13 13 10 8 9 10 13 15 16 15 12 12 13 13 13 12 12 11 12 11 12 12 12 12 11
23 23 24 24 24 22 21 21 21 20 19 20 20 19 18 16 13 12 11 11 10 9 7 6 9 11 13 15 16 13 14 14 14 13 13 13 13 13 13 13 13 12 12 11
24 24 24 24 23 23 22 21 20 20 20 21 21 20 19 18 15 12 10 9 9 10 10 7 8 9 11 11 15 14 14 14 14 14 14 13 14 14 14 14 13 13 12 12
23 23 24 24 23 22 20 19 20 21 22 21 21 20 19 18 16 14 12 9 9 9 9 8 8 8 9 11 13 14 14 15 14 13 13 14 14 14 14 14 14 13 13 12
22 22 23 23 23 23 23 20 20 20 20 21 21 20 19 17 13 12 11 8 7 8 8 9 8 4 8 10 11 13 15 15 14 14 14 14 14 14 14 15 14 13 13 13
22 22 22 22 22 22 22 21 20 17 19 20 19 20 18 15 13 12 11 10 11 11 10 10 10 7 9 10 11 12 13 14 14 14 14 14 13 14 13 13 13 13 13 15
21 21 22 22 20 17 18 19 20 18 18 15 18 19 16 13 13 11 11 11 11 11 11 12 13 13 12 11 12 12 12 12 13 13 14 13 13 14 13 13 13 13 12 12
20 18 17 18 16 15 14 14 14 13 13 13 13 13 13 12 13 12 10 12 15 12 12 10 11 12 12 12 13 13 13 12 13 13 14 13 15 15 13 14 16 13 11 11
19 17 14 15 14 14 14 14 15 14 13 12 13 12 12 12 12 12 13 11 11 12 11 11 11 11 11 12 12 13 12 12 12 13 14 13 13 13 13 15 13 12 11 11
Wind_Direction
280 286 287 283 279 273 258 259 271 281 287 295 303 303 300 294 284 275 275 280 284 281 270 255 239 232 228 219 203 202 182 167 160 158 157 159 155 150 154 156 143 136 131 124
283 282 282 279 274 271 268 266 267 273 279 287 295 296 286 274 268 272 276 278 276 263 250 237 229 223 218 230 221 208 194 185 173 168 167 166 163 159 156 148 135 132 122 113
284 291 289 274 273 275 271 266 267 271 281 293 296 291 283 275 269 273 276 273 267 254 242 233 225 221 227 228 229 223 201 187 179 176 171 171 167 162 157 150 141 130 120 110
282 288 263 290 326 293 287 282 280 278 282 289 292 293 280 267 268 272 269 264 258 249 238 229 223 217 227 231 230 222 206 189 178 176 171 168 167 161 153 149 142 133 126 117
276 282 282 290 299 301 293 290 291 292 294 295 303 287 266 245 238 252 260 257 254 244 235 225 223 221 227 232 229 220 207 193 182 177 171 170 169 160 153 150 144 142 132 131
271 284 287 321 12 353 298 283 327 330 315 308 296 281 297 308 201 221 230 231 230 228 224 218 218 220 232 237 229 221 204 186 174 174 175 172 162 157 154 151 148 147 136 140
273 275 277 356 4 320 292 331 345 326 314 304 292 287 302 290 231 217 213 212 211 216 215 215 212 216 233 239 230 219 193 176 167 167 169 165 159 157 158 158 152 144 139 141
273 271 292 14 341 329 321 320 313 308 303 299 295 290 285 274 250 229 217 207 203 205 208 207 209 216 231 236 224 208 191 179 168 168 172 162 163 164 164 157 155 152 150 151
299 299 335 339 330 328 325 315 309 303 300 298 295 292 287 277 260 237 223 210 201 201 204 203 205 217 232 228 212 205 196 185 174 171 174 170 173 169 168 174 177 169 169 168
293 299 331 333 340 339 333 324 316 309 302 297 293 291 287 280 268 243 223 209 200 199 203 203 204 213 226 222 206 205 199 187 178 177 180 178 183 180 182 184 182 175 178 175
292 327 337 343 348 343 337 334 329 323 315 308 302 295 289 283 272 251 226 210 200 199 202 203 201 207 214 210 203 205 198 189 187 186 185 181 189 179 198 186 176 183 184 182
337 346 326 338 346 344 342 341 338 336 334 331 326 317 307 295 284 264 234 212 204 202 201 200 198 202 206 203 202 205 199 194 193 193 183 187 179 164 65 66 89 72 33 309
347 332 335 339 338 343 341 340 340 343 344 343 342 338 329 318 304 284 248 221 211 206 200 197 196 198 199 198 201 205 206 198 198 196 186 193 190 185 170 138 100 115 132 82
343 337 331 335 331 331 331 330 330 333 337 341 342 342 340 332 322 306 278 245 223 213 204 197 195 196 195 194 198 203 206 198 204 200 197 197 196 197 188 177 175 177 174 164
327 323 312 312 314 318 319 321 323 325 329 332 336 338 337 335 328 316 301 279 246 222 210 201 197 195 191 192 195 201 204 199 199 202 200 200 197 200 197 189 187 178 167 161
309 307 306 308 309 310 312 315 315 314 317 319 322 326 327 327 325 321 313 291 259 235 218 208 202 195 188 191 193 198 203 201 194 201 201 197 197 199 197 193 194 186 180 172
300 306 310 309 308 308 308 307 305 304 304 306 308 311 313 317 320 322 324 313 283 257 238 221 209 197 189 190 194 197 196 186 189 207 206 199 198 200 198 195 195 192 191 176
296 296 297 298 300 301 302 301 299 299 298 297 297 298 301 304 308 313 315 315 299 269 246 232 218 202 194 192 195 200 196 188 189 206 206 202 201 201 200 199 199 197 191 168
305 304 303 301 300 299 298 299 298 297 296 295 293 290 289 289 292 300 307 306 297 279 255 238 220 209 199 195 192 201 199 197 192 200 205 197 202 207 204 203 203 201 199 188
315 313 311 308 306 303 301 299 298 297 296 295 291 288 285 283 282 286 294 294 289 291 291 258 221 213 207 197 195 202 202 201 200 199 202 201 202 209 209 207 207 207 207 206
320 318 315 312 309 306 302 301 299 297 296 294 291 286 283 281 277 273 275 283 289 297 293 265 232 218 212 198 195 209 205 202 202 203 202 204 204 207 211 211 211 212 214 215
320 318 316 314 311 308 305 302 298 295 294 292 290 288 285 280 275 269 259 258 272 282 285 273 248 226 213 202 202 213 211 205 203 203 204 205 206 207 210 212 214 215 217 220
317 315 314 313 311 308 305 302 298 295 292 291 290 287 284 280 276 269 265 249 249 265 276 278 280 244 200 216 217 214 215 212 207 206 205 206 207 209 210 212 214 216 218 220
314 314 313 311 309 307 304 303 300 296 292 289 286 283 280 277 271 261 256 242 227 239 257 269 275 254 223 231 227 222 217 215 212 209 209 208 208 209 210 212 214 215 217 221
312 311 310 310 309 306 303 302 300 295 290 284 281 281 278 272 269 266 260 254 238 231 245 249 243 235 236 236 227 223 221 217 215 212 210 209 210 210 209 209 212 215 215 217
312 309 308 306 307 304 304 303 299 293 288 284 279 278 276 273 270 264 256 253 250 241 242 246 241 227 229 228 226 224 223 215 209 215 216 212 213 212 210 209 210 213 214 215
310 311 310 311 311 310 310 306 302 298 291 283 277 272 269 267 266 263 258 253 250 245 240 235 235 234 229 226 223 221 220 218 212 208 212 214 215 214 210 207 209 210 212 216